World > North America > United States > Ohio

Hourly Middlebranch, OH Regional Weather

Feedback E-mail the Weather

Quick WX

Middlebranch, OH Weather Maps

°F °C°F °C
Middlebranch Weather Map
UTC Time: 7/4/2022, 03:01
Your Time:

Middlebranch, OH Regional Weather

Expires:202207040400;;642892
ASUS41 KCLE 040300
RWRCLE
OHIO REGIONAL WEATHER ROUNDUP
NATIONAL WEATHER SERVICE WILMINGTON, OH
1100 PM EDT SUN JUL 03 2022

NOTE: "FAIR" INDICATES FEW OR NO CLOUDS BELOW 12,000 FEET WITH NO
SIGNIFICANT WEATHER AND/OR OBSTRUCTIONS TO VISIBILITY.


OHZ009>014-019>023-028>033-038-089-040400-
   NORTHEAST OHIO
  
CITY           SKY/WX    TMP DP  RH WIND       PRES   REMARKS
CLE-HOPKINS    FAIR      71  52  50 S3        30.15R                  
CLE-LAKEFRONT  FAIR      75  53  46 E3        30.15R HAZE             
CUY CO. ARPT   CLEAR     66  54  63 CALM      30.17R                  
LORAIN-ELYRIA  FAIR      69  54  58 CALM      30.17R                  
ASHTABULA      FAIR      60  53  77 CALM      30.18S                  
AKRON-CANTON   FAIR      71  55  56 N6        30.19R                  
WOOSTER        NOT AVBL                                               
MANSFIELD      FAIR      71  54  54 E7        30.18R                  
YOUNGSTOWN     FAIR      61  54  77 E5        30.19R                  
$$
 

SKY/WX - Weather  TMP - Temperature  DP - Dew Point  RH - Humidity
WIND - Wind Direction/Speed PRES - Barometric Pressure VSB - Visibility
WCI - Wind Chill Index E13G22 Wind - East Wind 13 mph/Gusts of 22 mph

Trending Headlines

Middlebranch Radar Loop



Middlebranch Quick Facts


National Two Day Weather Forecast


E-mail the Middlebranch Weather Forecast

Voice your opinion or tell us about page issues...